Mount Pleasant, MI

9:38 AM EDT on May 23, 2017 (GMT -0400)
Mount Pleasant Municipal

Weather History for KMOP - January, 2014

Change the Weather History Date:

Monday, January 13, 2014

  Actual Average (KAMN) Record (KAMN)
Temperature  
Mean Temperature 34 °F -  
Max Temperature 40 °F 27 °F 50 °F (1961)
Min Temperature 28 °F 13 °F -11 °F (1974)
Degree Days  
Heating Degree Days 31    
Moisture  
Dew Point 29 °F    
Average Humidity 79    
Maximum Humidity 87    
Minimum Humidity 68    
Precipitation  
Precipitation 0.00 in - - ()
Sea Level Pressure  
Sea Level Pressure 29.55 in    
Wind  
Wind Speed 5 mph (SSW)    
Max Wind Speed 12 mph    
Max Gust Speed 18 mph    
Visibility 10 miles    
Events Rain    
Averages and records for this station are not official NWS values.
T = Trace of Precipitation, MM = Missing Value Source: NWS Daily Summary

Daily Weather History Graph

Daily Weather History Graph

Search for Another Location

Airport or City:

Trip Planner

Search our weather history database for the weather conditions in past years. The results will help you decide how hot, cold, wet, or windy it might be!

Date:

Astronomy

Jan. 13, 2014 Rise Set
Actual Time 8:10 AM EST 5:25 PM EST
Civil Twilight 7:38 AM EST 5:57 PM EST
Nautical Twilight 7:02 AM EST 6:33 PM EST
Astronomical Twilight 6:28 AM EST 7:07 PM EST
Moon 3:40 PM EST (1/13) 5:57 AM EST (1/13)
Length of Visible Light 10h 19m
Length of Day
9h 15m
Waxing Gibbous, 95% of the Moon is Illuminated
Jan 13
Waxing Gibbous
Jan 15
Full
Jan 24
Last Quarter
Jan 30
New
Feb 6
First Quarter

Hourly Weather History & Observations

Time (EST) Temp. Windchill Dew Point Humidity Pressure Visibility Wind Dir Wind Speed Gust Speed Precip Events Conditions
12:15 AM 32.0 °F 27.5 °F 25.3 °F 76% 29.63 in 10.0 mi SSE 4.6 mph - N/A   Clear
12:35 AM 32.0 °F 26.4 °F 25.7 °F 78% 29.63 in 10.0 mi SSE 5.8 mph - N/A   Clear
12:55 AM 32.2 °F 27.7 °F 26.1 °F 78% 29.62 in 10.0 mi South 4.6 mph - N/A   Clear
1:15 AM 32.0 °F 28.7 °F 26.1 °F 79% 29.62 in 10.0 mi South 3.5 mph - N/A   Clear
1:35 AM 32.0 °F 27.5 °F 25.7 °F 78% 29.61 in 10.0 mi SSE 4.6 mph - N/A   Clear
1:55 AM 31.8 °F 27.3 °F 26.2 °F 80% 29.61 in 10.0 mi SSE 4.6 mph - N/A   Clear
2:15 AM 31.5 °F 26.8 °F 25.9 °F 80% 29.61 in 10.0 mi SSE 4.6 mph - N/A   Clear
2:35 AM 31.6 °F 27.0 °F 26.2 °F 80% 29.60 in 10.0 mi SSE 4.6 mph - N/A   Clear
2:55 AM 31.6 °F 27.0 °F 26.4 °F 81% 29.60 in 10.0 mi SSE 4.6 mph - N/A   Clear
3:15 AM 31.8 °F 26.2 °F 26.4 °F 80% 29.59 in 10.0 mi SSE 5.8 mph - N/A   Clear
3:35 AM 31.8 °F 27.3 °F 26.6 °F 81% 29.58 in 10.0 mi SSE 4.6 mph - N/A   Clear
3:55 AM 32.0 °F 26.4 °F 26.6 °F 80% 29.57 in 10.0 mi SSE 5.8 mph - N/A   Clear
4:15 AM 32.0 °F 26.4 °F 26.6 °F 80% 29.57 in 10.0 mi SSE 5.8 mph - N/A   Clear
4:35 AM 32.0 °F 27.5 °F 26.6 °F 80% 29.57 in 10.0 mi SSE 4.6 mph - N/A   Clear
4:54 AM 32.0 °F 27.5 °F 27.0 °F 82% 29.56 in 10.0 mi SSE 4.6 mph - N/A   Clear
5:15 AM 32.2 °F 27.7 °F 27.0 °F 81% 29.56 in 10.0 mi SSE 4.6 mph - N/A   Clear
5:35 AM 32.4 °F 26.9 °F 27.1 °F 81% 29.55 in 10.0 mi SSE 5.8 mph - N/A   Clear
5:54 AM 32.9 °F 28.5 °F 27.3 °F 80% 29.54 in 10.0 mi SSE 4.6 mph - N/A   Clear
6:15 AM 32.9 °F 27.5 °F 27.3 °F 80% 29.54 in 10.0 mi SSE 5.8 mph - N/A   Clear
6:35 AM 32.2 °F 27.7 °F 27.1 °F 82% 29.53 in 10.0 mi SSE 4.6 mph - N/A   Clear
6:55 AM 32.0 °F 27.5 °F 27.1 °F 82% 29.53 in 10.0 mi SSE 4.6 mph - N/A   Clear
7:15 AM 32.0 °F - 26.8 °F 81% 29.53 in 10.0 mi Calm Calm - N/A   Clear
7:35 AM 32.0 °F 28.7 °F 26.8 °F 81% 29.54 in 10.0 mi SSE 3.5 mph - N/A   Clear
7:55 AM 30.6 °F - 25.9 °F 83% 29.53 in 10.0 mi Calm Calm - N/A   Clear
8:15 AM 29.8 °F 26.3 °F 25.7 °F 85% 29.53 in 10.0 mi SE 3.5 mph - N/A   Clear
8:35 AM 28.8 °F 25.0 °F 25.3 °F 87% 29.53 in 10.0 mi SSE 3.5 mph - N/A   Clear
8:55 AM 30.6 °F - 27.0 °F 86% 29.54 in 10.0 mi Calm Calm - N/A   Clear
9:15 AM 30.6 °F - 26.6 °F 85% 29.53 in 10.0 mi Calm Calm - N/A   Clear
9:35 AM 30.9 °F - 27.1 °F 86% 29.53 in 10.0 mi Calm Calm - N/A   Clear
9:54 AM 31.8 °F 28.5 °F 27.7 °F 85% 29.53 in 10.0 mi SSE 3.5 mph - N/A   Clear
10:15 AM 34.5 °F 31.6 °F 28.4 °F 78% 29.53 in 10.0 mi SSE 3.5 mph - N/A   Clear
10:35 AM 36.5 °F 32.7 °F 29.3 °F 75% 29.54 in 10.0 mi South 4.6 mph - N/A   Scattered Clouds
10:54 AM 36.5 °F 33.9 °F 29.3 °F 75% 29.54 in 10.0 mi South 3.5 mph - N/A   Mostly Cloudy
11:15 AM 36.7 °F 32.9 °F 30.2 °F 77% 29.52 in 10.0 mi SSE 4.6 mph - N/A Rain Light Rain
11:35 AM 37.4 °F 34.9 °F 31.8 °F 80% 29.52 in 10.0 mi SSW 3.5 mph - N/A Rain Light Rain
11:55 AM 38.3 °F 33.9 °F 32.0 °F 78% 29.51 in 10.0 mi SSW 5.8 mph - N/A   Overcast
12:15 PM 38.7 °F 32.4 °F 32.0 °F 77% 29.51 in 10.0 mi SSW 9.2 mph - N/A   Overcast
12:35 PM 39.0 °F 32.8 °F 32.2 °F 76% 29.49 in 10.0 mi SSW 9.2 mph - N/A   Overcast
12:55 PM 39.2 °F 32.5 °F 32.4 °F 76% 29.48 in 10.0 mi South 10.4 mph - N/A   Overcast
1:15 PM 39.6 °F 33.0 °F 32.9 °F 77% 29.47 in 10.0 mi SSW 10.4 mph - N/A   Overcast
1:35 PM 39.4 °F 33.8 °F 32.9 °F 78% 29.48 in 10.0 mi SSW 8.1 mph - N/A   Overcast
1:55 PM 39.2 °F 35.0 °F 32.9 °F 78% 29.49 in 10.0 mi WSW 5.8 mph - N/A   Overcast
2:15 PM 39.2 °F 34.2 °F 32.9 °F 78% 29.49 in 10.0 mi SW 6.9 mph - N/A   Overcast
2:35 PM 39.4 °F 33.8 °F 33.1 °F 78% 29.49 in 10.0 mi SW 8.1 mph - N/A   Overcast
2:55 PM 39.6 °F 34.7 °F 32.9 °F 77% 29.49 in 10.0 mi SW 6.9 mph - N/A   Overcast
3:15 PM 39.7 °F 34.3 °F 32.9 °F 77% 29.49 in 10.0 mi SSW 8.1 mph - N/A   Overcast
3:35 PM 39.4 °F 33.8 °F 32.7 °F 77% 29.49 in 10.0 mi SSW 8.1 mph - N/A   Overcast
3:55 PM 39.4 °F 35.2 °F 32.5 °F 76% 29.49 in 10.0 mi South 5.8 mph - N/A   Overcast
4:15 PM 40.3 °F 34.4 °F 32.7 °F 74% 29.50 in 10.0 mi SSW 9.2 mph - N/A   Scattered Clouds
4:34 PM 39.9 °F 34.5 °F 32.7 °F 75% 29.51 in 10.0 mi SSW 8.1 mph - N/A   Clear
4:55 PM 39.7 °F 34.9 °F 32.4 °F 75% 29.51 in 10.0 mi SSW 6.9 mph - N/A   Clear
5:15 PM 39.4 °F 35.2 °F 32.2 °F 75% 29.52 in 10.0 mi SW 5.8 mph - N/A   Clear
5:34 PM 38.5 °F 36.1 °F 32.0 °F 78% 29.53 in 10.0 mi SW 3.5 mph - N/A   Clear
5:55 PM 37.8 °F 34.2 °F 32.0 °F 80% 29.54 in 10.0 mi WSW 4.6 mph - N/A   Clear
6:15 PM 37.6 °F 33.1 °F 32.0 °F 80% 29.53 in 10.0 mi SW 5.8 mph - N/A   Clear
6:34 PM 37.8 °F 31.8 °F 32.0 °F 80% 29.54 in 10.0 mi SW 8.1 mph - N/A   Clear
6:55 PM 36.9 °F 32.2 °F 32.0 °F 83% 29.56 in 10.0 mi SW 5.8 mph - N/A   Clear
7:15 PM 37.0 °F 30.4 °F 32.0 °F 82% 29.56 in 10.0 mi SW 9.2 mph - N/A   Mostly Cloudy
7:34 PM 37.0 °F 32.4 °F 32.0 °F 82% 29.57 in 10.0 mi SW 5.8 mph - N/A   Overcast
7:55 PM 37.0 °F 32.4 °F 32.0 °F 82% 29.57 in 10.0 mi SW 5.8 mph - N/A   Overcast
8:15 PM 37.4 °F 31.4 °F 32.0 °F 81% 29.58 in 10.0 mi WSW 8.1 mph - N/A   Overcast
8:34 PM 37.4 °F 30.8 °F 30.6 °F 76% 29.59 in 10.0 mi West 9.2 mph - N/A   Overcast
8:55 PM 37.2 °F 31.2 °F 30.2 °F 76% 29.59 in 10.0 mi West 8.1 mph - N/A   Overcast
9:15 PM 36.7 °F 32.0 °F 30.2 °F 77% 29.59 in 10.0 mi West 5.8 mph - N/A   Overcast
9:34 PM 36.5 °F 32.7 °F 30.2 °F 78% 29.60 in 10.0 mi West 4.6 mph - N/A   Overcast
9:55 PM 36.5 °F 31.0 °F 30.2 °F 78% 29.61 in 10.0 mi West 6.9 mph - N/A   Overcast
10:15 PM 36.1 °F 29.9 °F 29.3 °F 76% 29.61 in 10.0 mi West 8.1 mph - N/A   Overcast
10:34 PM 35.8 °F 27.8 °F 27.7 °F 72% 29.62 in 10.0 mi West 11.5 mph 16.1 mph N/A   Overcast
10:55 PM 35.6 °F 28.0 °F 25.9 °F 68% 29.62 in 10.0 mi West 10.4 mph 16.1 mph N/A   Overcast
11:15 PM 35.6 °F 28.6 °F 26.2 °F 69% 29.63 in 10.0 mi West 9.2 mph - N/A   Overcast
11:35 PM 35.1 °F 27.4 °F 26.2 °F 70% 29.63 in 10.0 mi West 10.4 mph 18.4 mph N/A   Overcast
11:55 PM 34.5 °F 29.4 °F 24.8 °F 68% 29.63 in 10.0 mi West 5.8 mph - N/A   Overcast